Theta_e
322 323 322 325 330 333 335 336 332 329 331 337 336 335 334 333 332 331 331 328 319 313 310 308 306 304 303 302 301 301 301 301
323 323 323 324 328 331 334 336 332 331 331 333 336 336 334 333 332 331 331 328 322 313 311 309 305 304 303 302 301 300 301 301
321 322 323 323 325 329 333 335 335 332 330 330 333 333 334 333 332 331 330 328 321 315 312 310 306 304 302 301 301 300 300 300
320 320 321 322 324 327 330 333 334 329 329 329 330 329 330 331 331 331 330 329 320 315 312 310 307 304 303 301 300 299 301 300
319 320 321 321 321 324 329 331 333 331 329 329 329 330 329 330 331 330 329 324 316 313 312 310 306 304 303 301 300 299 300 300
316 317 319 320 320 321 325 329 332 332 330 328 328 330 328 329 330 329 328 324 315 312 312 309 306 304 302 300 300 301 300 300
315 316 318 318 319 319 322 327 330 332 331 328 327 328 327 325 326 328 328 322 314 312 310 308 305 303 302 302 302 298 298 298
314 315 316 317 317 317 319 321 327 330 330 329 326 326 326 326 325 326 321 320 314 313 309 306 304 303 301 299 299 304 305 296
313 313 313 315 316 316 317 320 323 327 329 327 326 325 325 323 323 324 325 325 318 312 309 304 303 301 299 301 309 311 296 296
310 311 311 312 313 314 315 316 322 324 328 326 324 324 322 322 319 319 320 316 316 312 307 308 302 299 299 302 310 300 295 296
308 310 311 310 311 312 314 315 315 320 325 325 322 321 319 319 318 317 316 313 312 308 307 303 300 298 298 299 298 294 294 295
307 308 309 309 310 309 311 313 312 315 321 323 321 320 318 317 317 314 313 312 309 307 304 300 299 298 295 297 294 295 295 295
309 309 310 309 310 313 312 312 312 312 316 322 320 319 315 314 313 311 310 309 308 304 301 300 299 299 298 298 295 294 293 294
309 310 311 311 311 311 311 311 312 311 312 313 314 313 313 311 310 308 307 305 304 301 300 301 302 301 299 294 294 294 295 295
307 309 310 310 309 310 310 311 311 311 309 310 310 310 309 308 307 305 304 303 303 302 303 303 301 300 298 295 297 297 295 293
306 308 309 308 308 309 310 310 309 311 308 307 307 307 306 305 305 304 303 303 303 303 302 300 298 299 299 300 297 292 296 290
307 308 307 308 308 308 309 310 308 308 307 306 305 304 303 303 303 302 302 302 302 301 299 299 299 300 300 296 293 296 292 292
303 304 306 308 308 308 309 310 307 308 308 306 303 301 300 300 300 301 301 302 301 299 298 299 300 298 294 293 292 294 293 291
302 304 306 308 308 308 308 307 306 307 307 306 304 301 300 300 300 300 301 301 300 299 299 297 295 294 293 292 292 291 290 290
Wind_Speed
23 22 23 24 24 26 28 33 41 41 42 50 52 50 48 48 48 46 46 44 41 37 34 33 29 28 27 26 25 22 20 19
17 19 18 18 22 25 28 31 42 42 45 48 55 57 55 53 51 49 50 45 43 39 36 35 31 29 28 28 26 24 23 22
20 20 16 18 19 22 27 30 37 45 45 47 51 56 57 56 54 53 51 48 44 42 41 38 35 33 32 31 29 28 25 25
25 26 23 20 21 23 26 29 36 42 43 44 48 49 53 57 57 55 51 49 46 45 44 38 37 36 34 34 33 30 24 28
25 25 26 25 23 22 24 27 32 40 40 47 46 54 57 60 61 57 55 53 50 46 43 40 39 38 36 35 33 31 26 27
23 24 24 25 24 23 24 24 28 41 44 45 46 48 56 58 60 58 56 54 51 47 45 44 41 38 36 33 31 29 29 22
23 23 22 21 23 27 22 25 28 41 46 46 49 50 53 56 58 58 62 59 54 50 48 45 44 40 38 36 33 30 26 26
23 23 25 26 27 27 28 25 30 36 49 49 49 53 51 56 59 60 62 61 58 55 50 46 43 40 38 35 29 25 24 31
26 24 26 27 29 31 33 30 32 35 48 52 49 53 50 57 58 58 62 63 60 55 52 45 44 42 39 37 32 35 35 31
32 29 29 28 31 32 35 37 34 34 43 47 50 52 51 56 56 54 56 57 61 58 54 50 44 40 37 33 27 32 33 30
37 34 32 32 30 34 36 35 40 34 36 47 47 50 51 55 54 54 55 56 58 58 55 48 45 39 34 32 33 33 29 25
36 39 38 36 31 34 39 39 43 35 32 38 44 46 50 53 53 53 54 55 56 54 50 46 40 35 30 29 29 27 28 28
36 38 40 36 34 30 38 37 39 40 32 40 42 45 50 51 51 50 50 51 51 46 51 47 43 40 34 29 28 29 28 26
37 36 34 37 36 37 41 36 39 40 32 32 38 43 47 48 48 46 45 46 41 45 46 44 49 43 37 30 31 28 27 25
37 35 35 33 38 39 42 43 33 27 30 31 36 39 42 42 41 40 38 36 41 45 45 47 47 43 39 36 30 31 32 29
38 33 34 35 37 35 36 41 30 27 21 29 30 32 35 34 32 33 34 39 46 49 49 46 40 39 38 39 38 36 30 26
34 35 40 38 39 37 36 31 29 28 20 27 25 26 29 30 33 39 45 50 47 45 46 46 45 43 42 36 35 32 26 26
42 44 43 35 34 38 35 26 25 24 21 16 20 23 26 32 38 41 46 46 44 44 42 44 42 36 37 36 32 26 27 28
46 39 37 33 31 30 28 20 23 21 20 17 17 16 22 25 29 36 41 40 42 43 42 36 36 35 34 32 30 26 26 26
Wind_Direction
299 292 275 265 258 247 240 238 248 248 239 235 235 234 232 232 230 229 228 222 220 217 216 219 216 214 210 206 201 194 190 182
314 305 291 284 268 255 245 235 251 245 241 234 234 230 229 229 230 230 228 222 221 218 219 219 215 213 212 209 203 196 186 179
340 339 324 293 276 265 252 241 243 250 249 245 238 236 230 229 227 226 227 223 221 220 219 219 217 213 211 208 204 197 195 189
335 330 326 319 298 275 258 245 235 250 248 245 239 236 234 227 225 227 227 224 222 220 220 219 217 216 214 210 205 200 198 194
340 334 329 314 304 293 273 259 248 248 245 239 243 241 235 233 229 224 222 218 217 219 220 220 218 216 213 211 208 205 215 207
333 329 324 321 315 305 283 265 248 246 251 242 242 239 241 238 234 227 221 221 218 216 218 217 218 215 211 207 208 210 219 215
330 329 324 322 320 315 302 271 255 246 248 245 245 242 237 231 233 229 224 217 214 214 216 215 216 214 210 212 211 205 208 224
331 327 324 323 325 323 314 293 263 248 251 243 244 244 240 237 233 231 222 216 214 215 212 213 213 214 211 204 200 203 224 224
335 328 324 322 322 323 320 309 283 252 250 245 244 241 239 237 231 230 231 224 218 214 211 208 210 209 206 203 203 210 218 216
327 320 322 323 323 320 322 319 303 263 247 248 239 240 234 234 228 225 227 218 216 213 209 206 206 204 202 203 203 211 207 204
320 319 317 316 319 329 319 322 316 292 256 246 241 238 231 230 231 224 222 214 215 210 206 200 195 196 196 196 195 197 196 195
313 314 310 310 310 319 323 325 330 308 281 244 236 233 232 229 229 225 220 216 214 209 196 189 190 192 191 193 192 190 199 192
318 318 316 310 310 316 321 310 319 321 278 251 239 233 225 224 223 222 219 215 212 201 187 184 182 185 193 194 202 191 192 190
319 321 324 321 318 317 315 310 302 314 276 232 223 221 222 219 218 215 213 211 201 185 184 189 193 186 180 194 196 193 194 197
314 316 320 321 321 320 314 314 295 303 277 245 228 219 216 215 213 210 206 200 191 190 193 191 185 183 186 185 189 198 201 202
309 309 313 315 312 316 316 304 294 273 295 248 230 222 217 214 210 204 198 191 189 188 185 180 174 176 184 189 195 200 203 200
315 311 310 312 313 315 317 300 288 263 253 241 230 225 213 207 200 194 188 186 185 182 177 176 181 184 189 198 198 199 194 199
314 309 305 306 312 317 324 303 287 270 262 254 231 218 211 202 194 190 185 183 181 176 178 180 179 188 193 195 194 199 204 200
311 304 299 303 309 318 330 300 287 269 251 248 237 233 212 200 193 188 183 185 184 180 180 185 181 193 198 193 196 199 204 198